TimeEDT,TemperatureF,Dew PointF,Humidity,Sea Level PressureIn,VisibilityMPH,Wind Direction,Wind SpeedMPH,Gust SpeedMPH,PrecipitationIn,Events,Conditions,WindDirDegrees,DateUTC
12:53 AM,54.0,48.0,80,30.13,10.0,Calm,Calm,-,N/A,,Overcast,0,2012-10-24 04:53:00
1:53 AM,57.0,39.9,53,30.13,10.0,NNE,4.6,-,N/A,,Overcast,20,2012-10-24 05:53:00
2:53 AM,55.0,35.1,47,30.13,10.0,NE,5.8,-,N/A,,Overcast,40,2012-10-24 06:53:00
3:53 AM,54.0,35.1,49,30.13,10.0,NE,3.5,-,N/A,,Overcast,40,2012-10-24 07:53:00
4:53 AM,54.0,37.0,53,30.15,10.0,North,5.8,-,N/A,,Overcast,10,2012-10-24 08:53:00
5:53 AM,52.0,37.0,57,30.16,10.0,North,4.6,-,N/A,,Overcast,350,2012-10-24 09:53:00
6:53 AM,51.1,36.0,56,30.17,10.0,Calm,Calm,-,N/A,,Mostly Cloudy,0,2012-10-24 10:53:00
7:53 AM,51.1,36.0,56,30.19,10.0,North,3.5,-,N/A,,Overcast,350,2012-10-24 11:53:00
8:53 AM,52.0,37.0,57,30.19,10.0,North,3.5,-,N/A,,Overcast,360,2012-10-24 12:53:00
9:53 AM,54.0,39.9,59,30.18,10.0,East,5.8,-,N/A,,Overcast,90,2012-10-24 13:53:00
10:53 AM,55.0,39.9,57,30.18,10.0,NE,4.6,-,N/A,,Overcast,50,2012-10-24 14:53:00
11:53 AM,55.0,39.9,57,30.18,10.0,NE,4.6,-,N/A,,Overcast,40,2012-10-24 15:53:00
12:53 PM,54.0,37.9,55,30.18,10.0,NE,4.6,-,N/A,,Overcast,40,2012-10-24 16:53:00
1:53 PM,54.0,39.9,59,30.16,10.0,Calm,Calm,-,N/A,,Overcast,0,2012-10-24 17:53:00
2:53 PM,55.0,39.0,55,30.14,10.0,Calm,Calm,-,N/A,,Overcast,0,2012-10-24 18:53:00
3:53 PM,55.9,37.9,51,30.14,10.0,Calm,Calm,-,N/A,,Overcast,0,2012-10-24 19:53:00
4:53 PM,55.9,37.9,51,30.15,10.0,Calm,Calm,-,N/A,,Overcast,0,2012-10-24 20:53:00
5:53 PM,55.0,39.9,57,30.16,10.0,Calm,Calm,-,N/A,,Overcast,0,2012-10-24 21:53:00
6:53 PM,53.1,41.0,64,30.18,10.0,Calm,Calm,-,N/A,,Mostly Cloudy,0,2012-10-24 22:53:00
7:53 PM,46.0,39.9,79,30.19,10.0,Calm,Calm,-,N/A,,Partly Cloudy,0,2012-10-24 23:53:00
9:53 PM,46.9,42.1,83,30.21,10.0,Calm,Calm,-,N/A,,Overcast,0,2012-10-25 01:53:00
10:53 PM,45.0,39.9,82,30.22,10.0,Calm,Calm,-,N/A,,Clear,0,2012-10-25 02:53:00
11:53 PM,41.0,37.9,89,30.22,7.0,Calm,Calm,-,N/A,,Clear,0,2012-10-25 03:53:00